COSMOS 1275 DEB, 42203

Orbit data source: Space-Track

COSMOS 1275 DEB, 42203 is space debris in LEO originally from a launch on Thu, 04 Jun 1981 UTC launched from the Plesetsk Missile And Space Complex (PKMTR). Debris objects in space refer to the collection of defunct objects orbiting the Earth. Examples of debris include non-operational satellites, rocket bodies, and fragments generated from explosions, collisions, or faulty payload assembly.

Loading next visibility...
Identifier
42203, 1981-053TT
Orbit
LEO
Country
Flag of CISCIS
Related business
Manufacturer
Unknown
Mission
Spacecraft
Bus & Motor
Unknown
Mass
Unknown
Launch date (UTC)
1981-06-04 (44 years ago)
Launch vehicle
Unknown
Launch site
Plesetsk Missile And Space Complex (PKMTR)
Object type
Payload
Rocket body
Debris
Shape & HBR
Unknown
Radar Cross Section
Small (<0.1 m²)

Expand to show TLE details & history
Last TLE update: 4 days ago

TLE from 4 days ago
0 COSMOS 1275 DEB
1 42203U 81053TT  25257.88546389  .00001098  00000-0  10803-2 0  9992
2 42203  82.9927 107.5826 0117090 119.8345 303.2495 13.74915547590611
Epoch: 2025-09-14T21:15Z
TLE epoch observation values (Epoch: 2025-09-14T21:15:04.08Z)
Latitude
61.25221°
Longitude
167.59652°
Altitude
945.898 km
Speed
7.408 km/s
True Right ascension
08h 01m 50s
True Declination
61° 06' 38"
Sunlit
Object was in daylight at epoch
Visualization orbit readout
Latitude
Unknown
Longitude
Unknown
Altitude
Unknown
Speed
Unknown
Apparent Right ascension
Unknown
Apparent Declination
Unknown
Sunlit
N/A
Visualization observer readout
Local Sidereal Time
11:07:34
Azimuth
Unknown
Elevation
Unknown
Doppler factor
Unknown
Orbital elements
Apogee altitude
1,065.269 km
Perigee altitude
892.976 km
Semi-major axis
7,357.26 km
Eccentricity
0.01171
Inclination
82.9927°
RAAN
107.5826°
Arg. of periapsis
119.8345°
True anomaly
302.1184°
Mean anomaly
303.2495°
Eccentric anomaly
302.68485°
Mean motion
3.43929 °/min
Orbital period
104.67 mins
BSTAR
0.0010803
Loading maneuver chart data...
Computing Atmospheric mass density...
Loading historical data...
Loading historical data...
Loading historical data...
Loading historical data...
Loading historical data...
Loading historical data...
Loading historical data...

Documentation

Showing up to 5 results
|